• In Netherlands
  • List of Countries
  • For 7 days
  • Water Temperature
  • Satellite Maps
  • Weather Map
  • Weather Widgets
  • user-avatar
    Login

    Hourly Weather San Luis

    Today, 13 December, Wednesday

    Time Temperature Precipitation Wind Pressure Humidity
    00:00 +26°C° 0.2 mm 6 mps 695 mmHg 47%
    01:00 +24°C° 0.2 mm 6 mps 695 mmHg 52%
    02:00 +23°C° 0.2 mm 6 mps 695 mmHg 57%
    03:00 +22°C° 1.1 mm 6 mps 695 mmHg 64%
    04:00 +20°C° 1.1 mm 6 mps 695 mmHg 70%
    05:00 +19°C° 1.1 mm 6 mps 695 mmHg 77%
    06:00 +20°C° 0.7 mm 5 mps 696 mmHg 74%
    07:00 +21°C° 0.7 mm 5 mps 696 mmHg 71%
    08:00 +22°C° 0.7 mm 5 mps 697 mmHg 68%
    09:00 +25°C° 0.2 mm 5 mps 698 mmHg 61%
    10:00 +26°C° 0.2 mm 6 mps 698 mmHg 54%
    11:00 +28°C° 0.2 mm 6 mps 698 mmHg 47%
    12:00 +29°C° 0 mm 6 mps 698 mmHg 43%
    13:00 +30°C° 0 mm 7 mps 698 mmHg 39%
    14:00 +32°C° 0 mm 7 mps 698 mmHg 35%
    15:00 +30°C° 0 mm 7 mps 698 mmHg 35%
    16:00 +30°C° 0 mm 7 mps 698 mmHg 35%
    17:00 +30°C° 0 mm 7 mps 697 mmHg 35%
    18:00 +28°C° 0 mm 6 mps 698 mmHg 39%
    19:00 +27°C° 0 mm 6 mps 698 mmHg 44%
    20:00 +25°C° 0 mm 5 mps 698 mmHg 48%
    21:00 +23°C° 0 mm 5 mps 699 mmHg 52%
    22:00 +23°C° 0 mm 5 mps 699 mmHg 55%
    23:00 +22°C° 0 mm 5 mps 700 mmHg 59%

    Tomorrow, 14 December, Thursday

    Time Temperature Precipitation Wind Pressure Humidity
    00:00 +21°C° 0 mm 4 mps 700 mmHg 59%
    01:00 +21°C° 0 mm 4 mps 699 mmHg 59%
    02:00 +21°C° 0 mm 3 mps 699 mmHg 58%
    03:00 +21°C° 0 mm 3 mps 699 mmHg 54%
    04:00 +21°C° 0 mm 3 mps 699 mmHg 49%
    05:00 +21°C° 0 mm 3 mps 699 mmHg 45%
    06:00 +23°C° 0 mm 4 mps 700 mmHg 38%
    07:00 +26°C° 0 mm 4 mps 701 mmHg 31%
    08:00 +29°C° 0 mm 5 mps 701 mmHg 24%
    09:00 +30°C° 0 mm 4 mps 701 mmHg 23%
    10:00 +32°C° 0 mm 4 mps 701 mmHg 21%
    11:00 +33°C° 0 mm 3 mps 701 mmHg 19%
    12:00 +34°C° 0 mm 3 mps 700 mmHg 19%
    13:00 +35°C° 0 mm 3 mps 700 mmHg 18%
    14:00 +36°C° 0 mm 2 mps 699 mmHg 17%
    15:00 +36°C° 0 mm 2 mps 698 mmHg 17%
    16:00 +36°C° 0 mm 2 mps 698 mmHg 16%
    17:00 +37°C° 0 mm 2 mps 697 mmHg 16%
    18:00 +35°C° 0 mm 2 mps 697 mmHg 19%
    19:00 +31°C° 0 mm 3 mps 697 mmHg 22%
    20:00 +29°C° 0 mm 3 mps 697 mmHg 26%
    21:00 +28°C° 0 mm 4 mps 697 mmHg 27%
    22:00 +28°C° 0 mm 4 mps 697 mmHg 28%
    23:00 +27°C° 0 mm 5 mps 698 mmHg 30%

    Day after tomorrow, 15 December, Friday

    Time Temperature Precipitation Wind Pressure Humidity
    00:00 +27°C° 0 mm 5 mps 697 mmHg 29%
    01:00 +27°C° 0 mm 6 mps 697 mmHg 28%
    02:00 +27°C° 0 mm 7 mps 697 mmHg 28%
    03:00 +27°C° 0 mm 6 mps 697 mmHg 27%
    04:00 +26°C° 0 mm 6 mps 697 mmHg 26%
    05:00 +26°C° 0 mm 6 mps 697 mmHg 26%
    06:00 +28°C° 0 mm 7 mps 697 mmHg 25%
    07:00 +30°C° 0 mm 7 mps 698 mmHg 24%
    08:00 +33°C° 0 mm 8 mps 698 mmHg 24%
    09:00 +34°C° 0 mm 8 mps 698 mmHg 23%
    10:00 +36°C° 0 mm 7 mps 698 mmHg 22%
    11:00 +38°C° 0 mm 7 mps 698 mmHg 21%
    12:00 +39°C° 0 mm 7 mps 697 mmHg 20%
    13:00 +40°C° 0 mm 7 mps 696 mmHg 18%
    14:00 +41°C° 0 mm 6 mps 695 mmHg 16%
    15:00 +41°C° 0 mm 6 mps 694 mmHg 16%
    16:00 +41°C° 0 mm 6 mps 693 mmHg 17%
    17:00 +41°C° 0 mm 5 mps 693 mmHg 17%
    18:00 +39°C° 0 mm 5 mps 692 mmHg 20%
    19:00 +36°C° 0 mm 4 mps 692 mmHg 24%
    20:00 +33°C° 0 mm 4 mps 692 mmHg 28%
    21:00 +33°C° 0 mm 5 mps 692 mmHg 31%
    22:00 +32°C° 0 mm 5 mps 692 mmHg 33%
    23:00 +32°C° 0 mm 6 mps 692 mmHg 36%

    16 December, Saturday

    Time Temperature Precipitation Wind Pressure Humidity
    00:00 +32°C° 0.1 mm 6 mps 692 mmHg 37%
    01:00 +32°C° 0.1 mm 7 mps 691 mmHg 38%
    02:00 +30°C° 0.1 mm 7 mps 691 mmHg 39%
    03:00 +30°C° 0 mm 7 mps 691 mmHg 40%
    04:00 +30°C° 0 mm 7 mps 690 mmHg 40%
    05:00 +29°C° 0 mm 7 mps 690 mmHg 41%
    06:00 +32°C° 0 mm 8 mps 690 mmHg 39%
    07:00 +33°C° 0 mm 9 mps 690 mmHg 36%
    08:00 +36°C° 0 mm 11 mps 690 mmHg 34%
    09:00 +38°C° 0 mm 10 mps 690 mmHg 31%
    10:00 +39°C° 0 mm 9 mps 690 mmHg 27%
    11:00 +42°C° 0 mm 9 mps 690 mmHg 24%
    12:00 +43°C° 0 mm 8 mps 690 mmHg 21%
    13:00 +44°C° 0 mm 7 mps 690 mmHg 19%
    14:00 +45°C° 0 mm 6 mps 690 mmHg 17%
    15:00 +44°C° 0 mm 7 mps 689 mmHg 20%
    16:00 +42°C° 0 mm 9 mps 689 mmHg 22%
    17:00 +40°C° 0 mm 10 mps 689 mmHg 25%
    18:00 +38°C° 0.1 mm 9 mps 690 mmHg 25%
    19:00 +35°C° 0.1 mm 7 mps 690 mmHg 25%
    20:00 +33°C° 0.1 mm 6 mps 691 mmHg 26%
    21:00 +29°C° 0 mm 8 mps 692 mmHg 25%
    22:00 +27°C° 0 mm 11 mps 694 mmHg 24%
    23:00 +23°C° 0 mm 13 mps 695 mmHg 24%

    17 December, Sunday

    Time Temperature Precipitation Wind Pressure Humidity
    00:00 +22°C° 0 mm 12 mps 696 mmHg 23%
    01:00 +19°C° 0 mm 12 mps 697 mmHg 21%
    02:00 +18°C° 0 mm 11 mps 698 mmHg 20%
    03:00 +17°C° 0 mm 10 mps 699 mmHg 21%
    04:00 +16°C° 0 mm 9 mps 700 mmHg 22%
    05:00 +15°C° 0 mm 8 mps 700 mmHg 23%
    06:00 +16°C° 0 mm 8 mps 701 mmHg 22%
    07:00 +17°C° 0 mm 7 mps 702 mmHg 22%
    08:00 +18°C° 0 mm 7 mps 703 mmHg 21%
    09:00 +20°C° 0 mm 6 mps 703 mmHg 19%
    10:00 +22°C° 0 mm 6 mps 703 mmHg 17%
    11:00 +23°C° 0 mm 5 mps 703 mmHg 16%
    12:00 +26°C° 0 mm 5 mps 703 mmHg 15%
    13:00 +27°C° 0 mm 5 mps 702 mmHg 14%
    14:00 +28°C° 0 mm 5 mps 702 mmHg 14%
    15:00 +29°C° 0 mm 5 mps 701 mmHg 14%
    16:00 +29°C° 0 mm 6 mps 701 mmHg 14%
    17:00 +30°C° 0 mm 6 mps 700 mmHg 14%
    18:00 +28°C° 0 mm 7 mps 700 mmHg 17%
    19:00 +26°C° 0 mm 7 mps 700 mmHg 19%
    20:00 +24°C° 0 mm 7 mps 700 mmHg 21%
    21:00 +23°C° 0 mm 7 mps 700 mmHg 23%
    22:00 +22°C° 0 mm 7 mps 700 mmHg 24%
    23:00 +21°C° 0 mm 7 mps 700 mmHg 26%

    18 December, Monday

    Time Temperature Precipitation Wind Pressure Humidity
    00:00 +21°C° 0 mm 7 mps 700 mmHg 28%
    01:00 +21°C° 0 mm 7 mps 700 mmHg 30%
    02:00 +21°C° 0 mm 7 mps 699 mmHg 32%
    03:00 +21°C° 0 mm 7 mps 699 mmHg 32%
    04:00 +20°C° 0 mm 7 mps 698 mmHg 32%
    05:00 +20°C° 0 mm 7 mps 698 mmHg 31%
    06:00 +22°C° 0 mm 8 mps 698 mmHg 29%
    07:00 +24°C° 0 mm 9 mps 698 mmHg 26%
    08:00 +27°C° 0 mm 10 mps 699 mmHg 24%
    09:00 +28°C° 0 mm 10 mps 698 mmHg 22%
    10:00 +31°C° 0 mm 10 mps 698 mmHg 21%
    11:00 +33°C° 0 mm 10 mps 698 mmHg 19%
    12:00 +34°C° 0 mm 9 mps 697 mmHg 19%
    13:00 +35°C° 0 mm 9 mps 697 mmHg 18%
    14:00 +37°C° 0 mm 8 mps 696 mmHg 17%
    15:00 +37°C° 0 mm 8 mps 696 mmHg 18%
    16:00 +35°C° 0 mm 7 mps 695 mmHg 19%
    17:00 +35°C° 0 mm 6 mps 695 mmHg 20%
    18:00 +33°C° 0 mm 6 mps 695 mmHg 24%
    19:00 +30°C° 0 mm 5 mps 695 mmHg 29%
    20:00 +28°C° 0 mm 4 mps 696 mmHg 33%
    21:00 +28°C° 0 mm 4 mps 696 mmHg 37%
    22:00 +27°C° 0 mm 5 mps 696 mmHg 41%
    23:00 +26°C° 0 mm 5 mps 697 mmHg 45%
    Show more